Date,TemperatureHighF,TemperatureAvgF,TemperatureLowF,DewpointHighF,DewpointAvgF,DewpointLowF,HumidityHigh,HumidityAvg,HumidityLow,PressureMaxIn,PressureMinIn,WindSpeedMaxMPH,WindSpeedAvgMPH,GustSpeedMaxMPH,PrecipitationSumIn
2012-1-1,79.5,71.0,63.7,65.5,62.0,58.4,85,74,57,30.17,30.09,8,2,8,0.00
2012-1-2,77.5,68.1,59.4,65.2,59.0,42.2,86,74,48,30.12,29.99,13,2,13,0.00
2012-1-3,59.5,52.0,44.1,45.8,30.3,16.7,65,45,21,30.28,30.09,14,4,14,0.00
2012-1-4,64.8,56.3,43.9,51.7,43.8,20.2,69,63,24,30.29,30.18,10,3,10,0.00
2012-1-5,66.9,57.7,50.0,44.4,36.5,21.7,69,48,18,30.21,30.13,8,2,8,0.00
2012-1-6,69.8,60.0,51.1,56.9,50.5,43.1,82,71,58,30.16,30.08,8,1,8,0.00
2012-1-7,73.2,64.3,56.1,57.0,54.6,51.1,86,72,55,30.13,30.06,9,1,9,0.00
2012-1-8,75.6,67.2,58.1,62.3,57.1,52.6,84,71,57,30.16,30.09,10,2,10,0.00
2012-1-9,79.5,73.1,69.4,65.4,62.3,60.3,77,69,58,30.14,30.04,10,4,11,0.00
2012-1-10,79.0,71.3,64.2,64.8,61.3,58.4,83,71,56,30.05,29.95,8,2,8,0.00
2012-1-11,76.1,71.5,65.3,68.2,65.3,60.4,87,81,67,29.97,29.76,13,3,14,0.00
2012-1-12,78.3,72.6,68.0,67.0,65.4,61.8,89,79,67,29.93,29.78,10,2,10,0.00
2012-1-13,73.9,69.9,65.5,64.4,61.6,54.8,83,75,66,30.09,29.93,7,1,7,0.00
2012-1-14,65.7,60.1,56.7,54.8,44.4,37.4,68,56,44,30.22,30.09,9,3,9,0.00
2012-1-27,80.1,73.4,70.5,71.8,66.8,65.5,85,80,71,30.02,29.95,2,0,5,0.00
2012-1-28,81.9,75.3,68.9,70.3,67.1,64.5,87,76,67,30.09,29.95,8,2,8,0.00
2012-1-29,77.9,73.0,70.0,66.3,63.4,59.5,81,72,62,30.17,30.06,11,4,11,0.00
2012-1-30,78.6,73.0,70.3,63.2,59.9,57.8,69,64,55,30.23,30.13,13,6,13,0.00
2012-1-31,79.3,73.0,69.4,63.7,61.3,57.8,77,67,58,30.25,30.13,10,5,10,0.00
2012-2-1,81.1,75.5,70.9,68.1,65.6,62.7,81,72,59,30.20,30.07,10,5,10,0.00
2012-2-2,73.6,71.6,69.4,69.8,67.6,65.3,89,87,82,30.09,30.01,7,2,7,0.36
2012-2-3,80.1,74.2,69.6,68.8,66.3,63.3,89,77,67,30.12,30.01,14,5,14,0.00
2012-2-4,79.5,74.6,71.8,69.5,67.2,64.5,86,78,70,30.11,29.99,14,7,14,0.08
2012-2-5,82.2,76.4,72.7,71.1,69.0,66.9,85,78,67,30.03,29.95,9,4,10,0.00
2012-2-6,80.8,74.9,70.9,72.7,69.6,67.1,89,84,75,30.00,29.93,13,4,13,1.00
2012-2-7,80.8,75.3,72.0,73.9,70.6,68.3,90,85,77,29.96,29.88,10,4,10,0.50
2012-2-8,80.1,73.2,69.6,71.4,67.8,64.2,90,83,72,30.00,29.91,10,3,10,0.00
2012-2-9,77.5,73.1,69.1,68.3,66.2,63.4,85,79,70,30.03,29.93,14,5,14,0.00
2012-2-10,78.6,74.2,71.8,74.4,70.0,67.2,90,87,82,30.01,29.83,14,5,14,1.69
2012-2-11,73.2,70.2,67.5,68.1,63.3,54.7,90,80,59,29.90,29.80,13,4,13,0.28
2012-2-12,71.4,55.9,51.3,46.1,42.7,36.1,74,62,52,30.17,29.88,14,5,14,0.00
2012-2-13,71.4,59.5,50.5,53.2,47.6,43.8,81,66,47,30.14,30.06,12,3,12,0.00
2012-2-15,80.2,79.3,78.4,65.5,65.0,64.1,64,62,59,30.09,30.08,6,5,10,0.00
2012-2-16,82.6,77.3,72.0,68.3,66.6,64.7,80,70,60,30.12,30.03,13,6,13,0.00
2012-2-17,82.2,74.7,68.7,69.9,67.0,64.5,87,77,64,30.14,29.94,12,2,12,0.00
2012-2-18,83.1,75.5,68.5,70.1,67.5,64.2,87,77,64,29.96,29.88,13,3,13,0.00
2012-2-19,86.9,77.8,70.7,72.9,69.6,65.2,89,77,57,29.90,29.81,13,4,13,0.00
2012-2-20,75.4,70.0,63.9,65.2,59.1,56.1,79,69,55,30.10,29.90,12,4,12,0.00
2012-2-21,79.5,72.2,67.1,61.2,58.1,54.5,69,61,52,30.14,30.06,12,5,12,0.00
2012-2-22,80.2,72.9,64.8,66.4,63.3,59.1,84,72,60,30.09,29.93,15,4,15,0.00
2012-2-23,85.5,74.6,66.6,72.8,67.1,61.9,88,78,57,29.96,29.89,12,2,12,0.00
2012-2-24,84.7,76.0,69.1,74.1,69.6,63.5,91,81,67,30.00,29.91,20,4,20,0.00
2012-2-25,80.4,73.9,70.2,74.4,66.7,63.4,90,79,65,30.13,29.95,14,4,14,0.00
2012-2-26,77.7,73.7,71.2,68.8,66.1,63.5,81,77,71,30.17,30.11,13,6,13,0.00
2012-2-27,85.1,77.5,73.4,72.8,69.7,67.4,86,77,64,30.21,30.11,16,7,16,0.00
2012-2-28,84.9,78.3,74.1,72.2,69.7,67.9,83,75,63,30.19,30.13,12,4,12,0.00
2012-2-29,85.1,78.4,74.3,72.5,69.8,67.5,83,75,65,30.14,30.06,14,6,14,0.00
2012-3-1,86.5,78.2,72.9,73.1,70.1,67.9,86,77,63,30.07,29.98,14,5,14,0.00
2012-3-2,87.1,77.3,69.6,72.0,69.3,65.6,88,77,60,30.00,29.94,16,4,16,0.00
2012-3-3,85.3,78.0,73.8,80.0,51.3,-31.0,99,65,1,29.94,29.84,22,7,22,0.00
2012-3-4,82.6,71.6,59.0,76.2,51.9,-31.5,99,52,16,30.13,29.80,28,4,28,0.08
2012-3-5,74.3,64.7,56.1,56.9,49.5,39.7,72,58,49,30.26,30.11,13,4,13,0.00
2012-3-6,80.4,71.7,61.0,63.1,57.4,50.6,73,61,48,30.29,30.19,16,7,16,0.00
2012-3-7,79.7,73.9,69.4,66.8,63.2,58.0,76,69,62,30.28,30.18,18,9,18,0.00
2012-3-8,79.9,75.1,72.7,70.1,66.6,64.3,77,75,71,30.18,30.07,15,8,15,0.34
2012-3-9,85.1,77.8,73.4,71.9,68.3,65.4,78,73,63,30.11,30.03,15,6,15,0.00
2012-3-10,84.6,76.9,70.9,71.0,67.4,62.9,79,73,59,30.13,30.03,13,4,13,0.00
2012-3-11,84.9,76.5,72.5,70.9,66.7,63.8,80,72,60,30.19,30.10,14,8,14,0.33
2012-3-12,81.7,75.5,71.2,65.9,62.9,61.0,74,65,51,30.21,30.13,13,6,13,0.00
2012-3-13,83.3,75.7,70.7,64.1,61.7,59.6,69,62,50,30.17,30.11,12,3,12,0.00
2012-3-14,83.3,76.8,71.8,67.8,64.4,62.4,75,66,56,30.15,30.08,9,2,9,0.00
2012-3-15,84.7,76.5,71.6,70.4,66.6,64.4,80,72,59,30.14,30.06,18,6,18,0.06
2012-3-16,84.4,76.5,72.0,67.0,65.0,63.3,77,68,55,30.16,30.07,9,5,9,0.00
2012-3-17,83.3,76.1,69.3,66.5,63.6,61.2,77,66,55,30.15,30.07,10,4,10,0.00
2012-3-18,85.5,76.8,71.8,68.8,64.9,61.5,74,67,56,30.16,30.07,14,5,14,0.00
2012-3-19,84.4,76.7,72.0,65.3,63.2,60.1,78,64,48,30.12,30.03,10,5,10,0.00
2012-3-20,85.1,77.6,73.0,68.3,65.5,63.2,75,67,50,30.06,29.98,12,6,12,0.00
2012-3-21,87.6,79.0,73.8,70.8,67.9,65.9,80,69,56,30.10,29.99,19,9,19,0.00
2012-3-22,86.5,79.1,74.5,69.7,67.4,65.6,77,68,54,30.11,30.04,14,7,14,0.00
2012-3-23,86.2,78.3,73.0,68.2,65.6,63.6,79,66,53,30.08,30.00,9,5,9,0.00
2012-3-24,86.9,77.7,69.4,69.5,65.9,63.0,81,67,54,30.00,29.91,14,5,14,0.00
2012-3-25,87.6,78.7,71.2,69.8,66.2,62.6,80,67,49,29.93,29.79,41,3,41,0.00
2012-3-26,85.1,74.6,65.8,62.8,58.8,53.1,77,60,35,29.96,29.84,10,3,10,0.00
2012-3-27,85.8,77.0,70.5,69.7,64.0,60.6,77,65,54,30.12,29.93,12,4,12,0.00
2012-3-28,86.2,77.4,72.3,67.6,63.8,60.1,70,63,51,30.12,30.03,16,7,16,0.00
2012-3-29,85.5,76.7,70.7,65.2,63.2,60.9,75,64,50,30.04,29.96,11,4,11,0.00
2012-3-30,86.2,76.2,66.6,66.4,62.6,59.5,79,64,48,30.04,29.95,12,4,12,0.00
2012-3-31,87.6,76.7,69.4,72.6,67.5,61.8,83,74,60,29.99,29.85,18,4,18,1.51
2012-4-1,85.5,76.3,69.4,71.9,67.8,64.7,86,76,59,29.91,29.84,8,3,8,0.00
2012-4-2,88.2,77.7,70.5,73.3,68.6,65.1,84,74,61,29.89,29.83,9,2,9,0.00
2012-4-3,88.9,79.2,69.8,73.5,68.9,63.7,82,71,58,29.95,29.86,9,3,9,0.00
2012-4-4,89.1,79.4,72.1,73.5,69.6,67.0,84,73,58,29.95,29.81,20,4,20,0.00
2012-4-5,88.7,79.1,72.9,71.2,67.2,64.2,81,68,46,29.86,29.72,15,3,15,0.00
2012-4-6,88.7,80.0,73.8,74.5,69.2,63.5,84,71,50,29.87,29.72,14,4,14,0.08
2012-4-7,84.0,76.7,72.5,68.0,64.3,59.7,79,66,55,30.06,29.86,14,4,14,0.00
2012-4-8,84.0,75.5,70.2,61.6,59.0,56.0,67,57,46,30.11,30.04,9,3,9,0.00
2012-4-9,86.4,76.5,68.9,65.6,62.3,60.3,75,62,47,30.05,29.98,12,4,12,0.00
2012-4-10,86.4,76.7,67.5,64.9,61.7,59.4,78,61,46,30.04,29.96,9,3,9,0.00
2012-4-11,87.1,76.9,67.8,66.2,63.6,60.8,80,65,43,30.01,29.93,10,2,10,0.00
2012-4-12,86.9,77.5,68.7,70.6,65.8,60.8,77,68,47,30.01,29.92,9,3,9,0.33
2012-4-13,82.8,75.7,72.3,71.4,67.3,65.3,82,75,66,30.08,29.96,12,5,12,0.50
2012-4-14,84.6,76.5,71.8,67.0,64.4,61.3,82,67,50,30.17,30.03,17,10,17,0.00
2012-4-15,87.3,77.7,72.1,65.4,61.7,58.4,67,58,45,30.17,30.10,16,8,16,0.00
2012-4-16,87.6,79.0,73.6,65.0,61.2,56.7,72,55,44,30.16,30.06,16,8,16,0.00
2012-4-17,87.4,78.9,73.9,66.7,63.4,59.5,72,60,42,30.12,30.04,12,6,12,0.00
2012-4-18,87.8,79.3,73.6,69.0,66.3,63.9,74,65,51,30.06,29.95,13,6,13,0.00
2012-4-19,87.6,80.0,75.0,71.3,68.6,66.6,76,69,57,29.97,29.88,14,6,14,0.00
2012-4-20,90.1,79.5,72.1,74.5,69.4,66.0,82,72,57,29.92,29.82,15,5,15,0.72
2012-4-21,77.5,74.1,71.2,69.5,67.6,66.2,86,80,73,29.89,29.67,17,6,17,0.45
2012-4-22,81.9,76.0,69.1,73.2,67.4,62.9,85,75,58,29.72,29.54,18,5,18,0.87
2012-4-23,83.7,73.0,63.7,63.1,56.5,50.5,79,58,39,29.89,29.71,13,4,13,0.00
2012-4-24,80.1,68.5,59.2,52.7,48.6,42.4,74,51,27,30.00,29.86,9,2,9,0.00
2012-4-25,84.0,70.9,58.5,60.6,53.6,46.9,69,55,42,30.07,29.96,12,4,12,0.00
2012-4-26,86.9,75.2,63.9,65.3,61.3,55.5,77,63,47,30.09,30.03,10,4,10,0.00
2012-4-27,88.2,78.1,68.9,69.8,65.6,60.7,78,66,51,30.07,30.00,9,3,9,0.00
2012-4-28,82.6,76.6,72.7,72.1,69.2,65.7,86,78,63,30.05,29.99,14,3,14,1.31
2012-4-29,77.2,74.8,72.3,70.9,68.4,65.5,86,81,69,30.03,29.95,17,5,17,0.25
2012-4-30,77.5,74.5,72.3,70.5,68.2,66.1,85,81,77,30.00,29.93,18,9,18,0.19
2012-5-1,85.1,77.3,73.4,74.4,69.9,67.5,86,78,66,30.02,29.94,15,8,15,0.53
2012-5-2,87.8,79.5,75.6,73.6,70.3,68.6,83,74,61,30.06,29.96,15,7,15,0.03
2012-5-3,90.3,81.4,75.2,74.5,70.6,67.3,78,70,58,30.06,29.99,15,7,15,0.00
2012-5-4,90.0,81.3,75.9,72.5,69.3,67.2,77,68,53,30.06,29.97,10,5,10,0.00
2012-5-5,91.2,82.2,74.8,73.4,70.3,67.0,80,68,53,29.99,29.91,12,4,12,0.00
2012-5-6,91.8,81.2,72.7,75.6,70.8,66.9,83,72,57,29.95,29.87,13,3,13,0.00
2012-5-7,91.6,81.8,74.5,75.2,71.1,68.3,83,71,57,29.91,29.84,14,4,14,0.00
2012-5-8,87.3,78.7,73.6,74.5,69.9,66.5,81,75,64,29.90,29.84,14,2,14,0.19
2012-5-9,89.1,80.2,73.6,76.2,71.7,66.8,83,75,65,29.88,29.79,14,3,14,0.28
2012-5-10,92.7,81.3,75.0,76.6,72.3,69.1,85,75,56,29.87,29.77,8,2,8,0.00
2012-5-11,88.3,81.0,73.8,75.8,71.6,67.7,83,74,65,30.04,29.85,10,3,10,0.03
2012-5-12,86.9,81.5,77.4,72.7,70.6,68.8,77,70,59,30.12,30.02,13,6,13,0.00
2012-5-14,79.3,77.7,77.7,69.9,69.9,69.9,77,77,77,29.97,29.97,9,9,9,0.06
2012-5-15,88.0,81.0,75.9,76.7,72.8,69.1,84,76,68,29.99,29.91,13,3,13,0.19
2012-5-16,83.3,78.6,74.1,75.0,71.1,68.4,85,78,68,29.99,29.90,5,1,5,0.00
2012-5-17,83.3,78.6,72.9,74.4,70.7,66.1,83,77,70,29.94,29.84,12,3,12,0.34
2012-5-18,89.1,79.2,73.8,75.1,69.9,66.1,84,74,61,29.92,29.85,15,2,15,0.64
2012-5-19,87.8,76.9,72.0,75.8,69.8,66.0,84,79,67,29.94,29.85,12,1,12,0.70
2012-5-20,88.3,80.0,71.6,75.6,71.1,66.5,85,75,63,29.94,29.87,9,2,9,0.03
2012-5-21,90.5,82.5,73.9,75.8,71.7,67.2,81,70,60,29.95,29.88,8,3,8,0.03
2012-5-22,81.5,77.9,75.2,74.0,70.6,68.4,83,78,73,29.95,29.87,12,3,12,0.62
2012-5-23,85.3,79.7,75.6,75.9,72.0,69.3,84,78,72,29.90,29.84,14,5,14,0.22
2012-5-24,82.6,77.5,74.7,75.3,70.9,68.2,85,80,74,29.87,29.81,14,2,14,0.62
2012-5-25,90.1,81.7,72.7,77.7,72.9,67.4,86,75,65,29.99,29.84,8,2,8,0.00
2012-5-26,90.9,83.5,76.6,77.8,74.1,70.7,84,74,65,29.99,29.93,8,2,8,0.00
2012-5-27,92.7,81.7,76.1,77.2,72.8,69.4,84,75,58,29.94,29.83,17,3,17,0.64
2012-5-28,89.2,81.9,76.8,78.0,73.4,69.3,83,76,67,29.95,29.86,16,4,16,0.11
2012-5-29,90.3,82.7,76.1,78.6,74.0,70.4,85,75,65,29.95,29.87,18,2,18,0.00
2012-5-30,95.9,84.3,75.0,78.4,73.7,69.0,84,71,52,29.92,29.81,14,3,14,0.00
2012-5-31,88.0,81.6,77.7,75.4,73.1,70.7,81,75,64,29.93,29.84,14,2,14,0.25
2012-6-1,84.7,78.9,75.6,76.3,72.9,70.0,85,82,75,29.95,29.85,10,2,10,0.81
2012-6-2,92.1,83.0,76.6,78.7,74.6,70.7,86,76,64,29.95,29.85,7,1,7,0.03
2012-6-3,92.7,84.0,75.7,76.5,71.9,69.3,83,68,51,30.00,29.91,8,2,8,0.00
2012-6-4,97.3,86.7,77.4,79.8,73.6,69.0,80,66,51,29.97,29.84,13,2,13,0.00
2012-6-5,91.6,82.8,79.0,78.4,74.2,72.0,83,76,62,29.87,29.79,9,2,9,0.06
2012-6-6,86.9,82.4,78.1,78.0,74.1,71.0,84,76,65,29.93,29.85,14,1,14,0.00
2012-6-7,91.4,85.4,81.0,79.6,76.1,73.7,84,74,61,29.94,29.88,9,2,9,0.00
2012-6-8,92.5,82.2,77.2,80.3,74.3,69.9,83,77,67,29.95,29.88,13,1,13,1.98
2012-6-9,90.9,82.0,76.8,78.6,74.4,71.6,86,78,66,30.00,29.90,10,2,10,0.06
2012-6-10,92.3,85.5,79.2,79.4,76.2,73.7,84,74,65,30.08,29.95,14,4,14,0.00
2012-6-11,91.8,85.6,80.6,75.9,73.0,69.3,76,67,55,30.08,29.99,9,4,9,0.00
2012-6-12,91.9,84.9,78.6,72.7,70.2,67.8,71,62,52,30.04,29.95,8,3,8,0.00
2012-6-13,91.8,84.1,75.2,76.2,72.0,67.8,80,67,56,29.96,29.87,14,2,14,0.00
2012-6-14,94.3,86.8,76.6,79.0,75.2,68.7,79,69,58,29.97,29.87,8,2,8,0.14
2012-6-15,92.3,83.4,76.8,78.7,74.6,70.4,82,75,64,30.02,29.87,10,2,10,0.11
2012-6-17,90.5,86.0,80.4,72.3,69.0,65.8,64,57,52,30.07,30.01,11,4,11,0.00
2012-6-18,91.2,84.2,78.4,72.2,69.4,66.8,73,61,52,30.10,30.00,10,5,10,0.06
2012-6-19,89.1,82.5,78.6,74.7,71.3,68.0,75,69,62,30.11,30.04,13,7,13,0.08
2012-6-20,82.9,78.9,76.5,74.2,72.4,70.9,84,81,74,30.08,30.01,17,5,17,2.04
2012-6-21,89.1,82.5,76.3,77.2,74.1,70.9,85,76,65,30.06,29.96,13,5,13,0.53
2012-6-22,87.4,81.5,77.0,77.3,74.1,71.2,83,78,71,30.02,29.92,10,4,10,0.33
2012-6-23,86.0,80.3,76.1,77.6,73.6,70.5,84,80,74,30.08,29.93,13,4,13,0.67
2012-6-24,81.5,79.0,77.0,76.6,73.8,70.9,87,84,81,30.06,29.93,16,8,16,2.01
2012-6-25,90.1,83.9,81.0,78.9,76.3,74.6,84,78,66,29.94,29.57,17,8,17,0.00
2012-6-26,93.9,85.7,80.6,77.9,74.7,72.4,81,70,57,29.77,29.70,18,5,18,0.14
2012-6-27,92.3,85.3,80.6,79.3,75.7,72.3,81,73,63,29.96,29.73,16,5,16,0.00
2012-6-28,92.5,84.8,76.5,78.0,73.2,68.5,78,69,60,30.03,29.94,8,3,8,0.00
2012-6-29,93.4,85.9,77.4,77.9,73.3,69.8,79,67,54,30.01,29.92,10,4,10,0.00
2012-6-30,94.3,87.0,79.5,79.5,75.3,71.7,79,69,56,29.97,29.89,10,3,10,0.00
2012-7-1,94.3,87.2,80.6,80.2,75.7,73.1,79,69,59,30.04,29.94,14,3,14,0.00
2012-7-2,93.7,86.7,79.9,79.7,75.7,72.5,81,70,57,30.07,29.96,8,1,8,0.00
2012-7-3,93.7,86.7,79.0,79.6,75.9,72.1,81,71,60,30.04,29.96,10,3,10,0.00
2012-7-4,94.1,87.5,81.1,79.9,76.6,73.6,81,71,61,30.04,29.97,12,3,12,0.00
2012-7-5,94.1,86.4,79.0,79.0,75.3,71.9,80,70,58,30.02,29.96,14,2,14,0.00
2012-7-6,93.7,87.4,80.4,79.4,75.7,72.3,78,69,61,30.02,29.96,10,4,10,0.00
2012-7-7,94.1,87.7,82.0,79.1,76.1,73.3,78,69,59,30.05,29.98,10,4,10,0.00
2012-7-8,94.5,87.4,81.1,80.2,76.4,73.7,80,70,62,30.04,29.99,9,3,9,0.00
2012-7-9,91.9,86.1,79.7,79.3,75.5,72.3,81,71,63,30.03,29.95,9,3,9,0.00
2012-7-10,93.0,86.2,79.0,79.3,76.0,71.9,82,72,63,30.01,29.93,14,3,14,0.76
2012-7-11,92.7,80.0,76.6,74.6,72.4,71.1,84,78,68,30.03,29.92,10,2,9,1.70
2012-7-12,89.1,82.5,77.2,77.8,73.6,71.6,85,75,64,30.01,29.93,7,1,7,0.22
2012-7-13,90.9,85.0,79.0,77.4,74.6,72.1,80,71,63,30.03,29.95,12,4,12,0.00
2012-7-14,91.2,85.5,81.5,77.6,74.6,72.1,75,70,62,30.04,29.94,14,6,14,0.03
2012-7-15,91.2,83.4,77.4,77.0,73.6,70.5,81,73,59,30.08,29.99,12,2,12,0.73
2012-7-16,85.5,79.3,76.1,75.5,72.5,69.8,84,80,71,30.06,29.96,9,2,9,0.62
2012-7-17,90.1,80.5,76.1,78.8,73.5,70.2,85,80,68,30.02,29.93,12,1,12,0.73
2012-7-18,92.7,83.6,75.0,79.9,75.1,69.5,85,76,64,30.09,29.96,14,3,14,0.03
2012-7-19,93.7,86.7,79.5,80.1,76.8,73.9,84,73,62,30.14,30.07,12,4,12,0.00
2012-7-20,93.4,87.4,81.9,79.9,76.7,73.2,77,71,64,30.10,30.00,14,5,14,0.00
2012-7-21,93.4,87.7,82.4,80.3,77.2,74.5,78,72,65,30.07,29.99,10,5,10,0.00
2012-7-22,90.1,82.4,77.4,79.1,74.7,70.5,84,78,70,30.09,30.00,16,4,16,1.71
2012-7-23,90.1,82.4,76.6,77.9,74.6,71.1,84,78,67,30.12,30.04,12,3,12,0.31
2012-7-24,92.7,85.5,81.3,81.2,76.6,68.6,83,75,63,30.10,29.99,20,4,20,0.00
2012-7-25,94.1,86.2,79.2,80.6,76.1,71.6,83,72,62,30.03,29.96,10,3,10,0.00
2012-7-26,93.7,86.9,79.3,79.8,76.1,72.3,81,71,62,30.02,29.94,9,3,9,0.00
2012-7-27,93.7,87.4,80.4,80.0,76.1,73.1,80,70,60,30.06,29.96,10,2,10,0.00
2012-7-28,93.4,86.6,78.6,79.6,75.6,71.9,81,70,61,30.07,30.00,10,3,10,0.00
2012-7-29,94.1,86.9,78.4,79.0,74.9,71.2,80,68,58,30.06,29.97,12,2,12,0.00
2012-7-30,94.8,86.7,79.5,79.2,74.8,69.9,79,68,59,30.02,29.95,5,0,5,0.00
2012-7-31,94.5,86.4,77.9,79.1,74.2,69.7,78,68,56,30.02,29.94,12,3,12,0.00
2012-8-1,94.8,86.2,80.1,79.9,75.1,69.7,80,70,57,30.00,29.92,13,3,13,0.03
2012-8-2,94.8,87.3,79.7,80.1,76.7,73.3,83,71,59,29.97,29.90,12,3,12,0.00
2012-8-3,95.5,84.9,81.0,81.1,75.5,72.2,78,74,63,29.98,29.88,17,3,17,0.17
2012-8-4,93.0,85.4,78.8,80.2,76.2,73.0,84,74,65,30.02,29.88,14,4,14,0.00
2012-8-5,94.1,87.4,82.0,80.1,76.7,73.3,78,71,63,30.05,29.97,12,6,12,0.00
2012-8-6,89.8,82.8,77.5,78.8,75.0,71.1,83,78,69,30.04,29.96,14,4,14,2.01
2012-8-7,93.0,86.1,77.5,80.5,76.6,71.2,84,74,63,30.02,29.93,12,5,12,0.09
2012-8-8,94.1,87.8,82.0,80.5,76.9,74.1,78,71,63,30.02,29.94,9,4,9,0.00
2012-8-9,94.1,88.2,83.1,80.5,77.1,74.6,76,70,63,30.00,29.91,13,6,13,0.00
2012-8-10,88.7,83.7,81.1,77.7,74.5,71.8,77,74,69,29.97,29.90,14,4,14,0.25
2012-8-11,90.9,83.3,77.9,78.8,74.4,70.8,81,75,67,30.00,29.90,12,3,12,0.14
2012-8-12,92.3,82.8,77.7,79.4,75.0,71.9,84,78,63,30.02,29.93,12,1,12,0.28
2012-8-13,93.0,84.9,77.7,80.7,76.3,72.5,86,76,65,30.04,29.97,9,2,9,0.03
2012-8-14,93.4,86.1,79.5,80.7,76.7,73.5,84,74,64,30.02,29.94,31,2,31,0.08
2012-8-15,94.1,87.1,80.6,81.2,77.2,74.4,83,73,63,30.01,29.94,12,4,12,0.00
2012-8-16,94.1,86.9,80.6,80.5,77.1,74.2,82,73,64,30.05,29.96,10,2,10,0.00
2012-8-17,94.3,85.0,78.6,79.4,75.0,69.3,81,73,60,30.02,29.93,14,2,14,0.37
2012-8-18,96.1,83.1,77.4,79.3,74.6,71.6,84,76,56,29.97,29.90,10,1,10,1.34
2012-8-19,91.6,84.4,78.8,79.8,76.2,73.5,84,77,66,29.98,29.90,14,3,14,0.03
2012-8-20,92.7,85.8,79.5,80.7,76.2,72.8,83,74,63,29.99,29.89,16,3,16,0.03
2012-8-21,93.9,84.9,79.9,79.4,75.0,71.6,81,73,61,30.05,29.95,14,2,14,0.03
2012-8-22,93.0,83.1,76.8,81.2,74.0,70.5,82,74,64,30.05,29.96,9,2,9,0.00
2012-8-23,93.4,85.7,77.9,79.8,75.3,70.8,83,72,62,30.04,29.98,8,3,8,0.00
2012-8-24,93.0,83.8,76.5,79.3,74.1,70.0,81,73,64,30.01,29.91,12,4,12,1.63
2012-8-25,85.1,79.8,73.6,77.5,73.1,67.4,84,80,76,29.94,29.86,14,4,14,0.19
2012-8-26,83.7,80.1,77.2,76.9,74.4,72.1,88,83,75,29.87,29.71,30,10,30,6.32
2012-8-27,86.0,81.2,76.5,78.7,75.6,71.6,88,83,76,29.92,29.73,25,12,25,2.88
2012-8-28,90.9,83.9,78.4,81.1,76.9,72.7,86,80,70,29.98,29.89,16,6,16,0.20
2012-8-29,91.6,85.8,81.0,79.6,76.8,74.3,82,75,68,29.98,29.91,13,6,13,0.00
2012-8-30,92.7,86.0,80.2,80.2,76.6,73.9,82,74,66,30.06,29.93,10,3,10,0.00
2012-8-31,92.3,86.3,81.5,79.8,76.6,74.1,81,73,65,30.11,30.02,7,1,7,0.00
2012-9-1,91.8,85.5,79.5,79.6,76.3,73.9,84,74,66,30.07,29.98,10,3,10,0.22
2012-9-2,91.2,85.2,79.5,76.7,73.2,70.5,75,68,58,30.01,29.95,10,3,10,0.00
2012-9-3,90.9,84.5,77.5,77.9,73.7,70.1,79,70,61,30.01,29.93,10,3,10,0.00
2012-9-4,90.9,84.1,78.1,78.0,73.4,68.8,80,71,62,30.00,29.92,10,3,10,0.00
2012-9-5,89.4,81.7,78.3,77.7,73.2,70.6,81,76,67,29.98,29.91,14,4,14,0.31
2012-9-6,80.6,76.5,74.8,71.2,69.6,68.6,82,79,72,30.00,29.94,12,0,12,1.20
2012-9-7,90.5,81.4,74.7,78.9,73.5,68.6,86,77,65,29.98,29.90,9,2,9,0.17
2012-9-8,92.3,84.4,77.4,78.8,74.9,69.9,83,74,64,29.95,29.87,14,3,14,0.00
2012-9-9,96.3,86.9,78.8,79.1,74.7,72.1,80,68,50,29.95,29.86,10,2,10,0.00
2012-9-10,87.1,82.8,79.2,78.1,74.9,72.4,81,77,71,29.98,29.89,9,1,9,0.45
2012-9-11,90.9,82.4,77.4,79.6,74.7,72.1,86,78,68,30.03,29.94,9,3,9,0.17
2012-9-12,90.0,84.3,78.3,77.4,74.3,71.0,82,72,66,30.03,29.95,17,5,17,0.84
2012-9-13,86.2,82.4,77.7,75.3,73.3,71.6,84,74,68,30.03,29.94,13,6,13,0.45
2012-9-14,90.0,83.6,78.1,78.0,74.2,71.0,81,74,65,29.99,29.93,14,3,14,0.00
2012-9-15,88.2,82.2,76.6,77.9,73.8,70.7,84,76,69,30.01,29.94,9,3,9,0.62
2012-9-16,87.3,82.5,79.5,76.3,73.2,70.4,77,74,68,30.01,29.94,13,4,13,0.06
2012-9-17,87.6,82.2,79.9,76.9,73.7,71.8,79,76,70,29.99,29.90,10,4,10,0.03
2012-9-18,92.7,84.1,78.3,79.6,75.2,71.7,83,75,64,29.96,29.87,14,3,14,0.06
2012-9-19,90.1,83.0,77.7,78.6,74.7,71.8,84,76,65,30.03,29.88,8,2,8,0.00
2012-9-20,90.9,84.0,76.8,77.8,74.1,70.2,82,72,63,30.02,29.91,7,2,7,0.00
2012-9-21,89.8,81.8,77.4,76.7,73.2,70.7,82,76,64,29.95,29.88,16,1,16,1.26
2012-9-22,89.1,77.8,75.0,75.3,72.3,69.5,85,83,64,29.99,29.89,8,1,8,2.07
2012-9-23,84.4,79.1,75.7,76.2,73.1,71.3,87,82,75,30.01,29.95,6,1,6,0.00
2012-9-24,85.8,80.2,75.7,76.5,72.5,70.2,86,78,69,30.02,29.95,9,1,9,0.00
2012-9-25,86.0,80.4,76.1,75.5,72.1,69.2,82,76,70,30.04,29.95,14,1,14,0.00
2012-9-26,87.6,82.7,80.1,76.3,73.4,70.8,77,74,68,30.06,29.96,7,2,7,0.00
2012-9-27,90.5,84.1,78.4,78.6,74.9,70.1,82,74,66,30.04,29.96,10,2,10,0.06
2012-9-28,88.7,81.5,77.5,77.6,74.0,71.6,85,78,69,29.99,29.90,9,1,9,0.00
2012-9-29,89.4,82.9,77.2,78.5,74.5,71.2,85,76,69,29.93,29.83,12,2,12,0.75
2012-9-30,90.5,84.0,76.6,78.8,74.9,70.9,83,75,66,29.88,29.79,10,3,10,0.00
2012-10-1,89.1,82.1,77.4,77.7,74.2,71.8,83,77,68,29.85,29.74,14,3,14,1.09
2012-10-2,86.2,79.5,75.6,78.3,73.4,70.2,86,82,74,30.02,29.83,13,3,13,0.76
2012-10-3,89.8,83.3,77.2,80.1,75.9,72.0,86,79,71,30.11,30.00,12,3,12,0.00
2012-10-4,90.5,85.2,81.1,79.5,76.5,74.0,81,76,69,30.11,30.03,10,3,10,0.00
2012-10-5,90.9,85.4,81.3,78.9,75.9,73.8,80,73,65,30.05,29.91,9,3,9,0.00
2012-10-6,91.4,84.6,77.5,78.5,74.9,70.3,79,73,65,29.95,29.83,9,2,9,1.62
2012-10-7,82.6,79.3,76.5,75.8,73.1,69.8,84,81,77,29.94,29.84,7,1,7,0.17
2012-10-8,87.6,82.9,78.6,78.0,74.8,71.4,82,77,71,29.98,29.88,7,1,7,0.00
2012-10-9,89.1,83.3,77.5,78.1,74.8,72.0,85,76,67,29.99,29.91,8,2,8,0.00
2012-10-10,81.5,80.9,80.2,73.8,73.2,72.4,78,78,77,29.98,29.95,4,1,4,0.00
2012-10-15,88.0,84.4,79.5,76.1,73.6,70.7,77,70,65,29.95,29.77,11,4,11,0.00
2012-10-16,86.9,81.2,75.4,74.8,71.6,69.1,82,73,63,29.82,29.76,12,2,12,0.00
2012-10-17,86.9,79.3,73.9,75.7,71.2,67.7,81,77,68,29.88,29.79,9,2,9,1.57
2012-10-18,85.8,80.6,74.3,77.1,73.4,68.1,84,79,73,29.85,29.78,12,3,12,0.06
2012-10-19,85.8,80.8,76.6,77.1,73.7,71.0,85,79,71,29.87,29.79,10,2,10,0.17
2012-10-20,84.4,79.1,74.7,74.3,71.4,68.4,84,78,69,29.90,29.82,10,2,10,0.03
2012-10-21,85.5,77.8,70.7,68.5,65.6,62.5,83,67,53,29.97,29.86,10,3,10,0.00
2012-10-22,86.7,80.4,75.9,70.2,66.8,62.9,69,64,54,29.99,29.92,13,5,13,0.00
2012-10-23,86.9,80.5,75.7,73.5,68.7,63.4,81,68,61,29.96,29.90,14,6,14,0.00
2012-10-24,86.5,80.4,73.9,73.1,70.9,68.6,86,73,61,29.94,29.83,16,7,16,0.42
2012-10-25,83.5,79.1,72.1,73.4,70.8,66.3,87,76,69,29.83,29.64,20,8,20,0.39
2012-10-26,80.8,74.8,71.2,72.3,68.5,66.0,88,81,68,29.64,29.47,32,7,32,0.47
2012-10-27,82.6,74.8,69.8,67.3,65.1,62.6,84,72,58,29.57,29.45,20,8,20,0.00
2012-10-28,80.8,76.6,69.3,67.0,63.1,57.2,67,63,59,29.77,29.66,14,5,14,0.00
2012-10-29,72.9,67.1,61.7,57.6,51.5,46.1,71,58,39,29.83,29.73,15,5,15,0.00
2012-10-30,72.7,64.3,56.7,52.2,48.5,43.0,72,57,42,29.95,29.78,15,3,15,0.00
2012-10-31,73.6,64.7,56.8,55.6,52.6,48.8,82,66,48,30.00,29.94,9,1,9,0.00
2012-11-1,79.0,68.5,58.8,64.6,58.8,52.5,82,72,57,30.01,29.93,8,1,8,0.00
2012-11-2,79.7,71.4,65.7,63.5,58.9,51.7,85,66,39,30.03,29.96,7,1,7,0.00
2012-11-3,79.3,69.9,60.6,63.9,58.6,53.9,80,68,47,30.08,30.00,7,1,7,0.00
2012-11-4,81.7,72.5,64.8,67.3,62.7,58.4,82,72,57,30.05,29.95,8,1,8,0.00
2012-11-5,80.1,73.1,68.0,65.3,62.8,60.6,81,71,53,29.96,29.90,6,1,6,0.00
2012-11-6,82.9,74.0,67.1,66.3,62.8,61.1,82,69,49,29.90,29.79,10,2,10,0.00
2012-11-7,74.3,68.3,61.2,63.0,57.0,49.3,81,68,55,29.94,29.80,13,3,13,0.00
2012-11-8,70.7,63.6,57.4,52.2,48.3,42.5,72,59,37,30.05,29.92,10,2,10,0.00
2012-11-9,76.3,67.8,59.5,59.1,54.0,51.4,77,62,48,30.14,30.03,12,4,12,0.00
2012-11-10,78.6,73.3,70.5,60.4,56.9,53.6,65,57,48,30.19,30.11,14,5,14,0.00
2012-11-11,83.1,76.8,72.9,65.6,61.5,55.2,70,60,45,30.19,30.11,14,7,14,0.00
2012-11-12,82.9,77.7,74.8,69.7,66.9,64.8,74,70,63,30.14,30.08,14,7,14,0.00
2012-11-13,84.4,77.9,73.9,68.3,66.2,64.1,73,67,56,30.08,30.02,10,4,10,0.00
2012-11-14,84.2,77.4,73.9,70.4,66.4,63.5,75,69,62,30.07,29.99,8,4,8,0.00
2012-11-15,83.3,75.3,68.2,67.6,64.8,61.4,80,71,56,30.04,29.99,7,2,7,0.00
2012-11-16,79.3,72.0,67.3,68.3,64.3,61.6,83,77,66,30.04,29.99,64,2,64,0.03
2012-11-17,79.7,73.8,67.6,67.3,65.0,62.6,86,74,64,30.03,29.97,9,2,9,0.09
2012-11-18,81.0,73.6,68.9,68.5,65.2,62.1,84,75,64,30.04,29.97,13,4,13,0.08
2012-11-19,75.0,68.4,63.1,62.9,59.6,56.5,80,74,64,30.06,29.98,8,3,8,0.00
2012-11-20,74.7,68.0,63.0,65.0,60.2,56.5,82,76,70,29.99,29.87,10,3,10,0.00
2012-11-21,77.9,68.5,62.4,64.4,58.4,54.2,81,71,55,29.99,29.88,13,3,13,0.00
2012-11-22,75.4,66.1,59.9,59.0,53.5,50.5,73,64,51,30.06,29.94,13,4,13,0.00
2012-11-23,77.2,66.5,59.5,60.6,55.3,50.9,76,68,53,30.07,30.00,13,3,13,0.00
2012-11-24,73.6,64.8,55.6,57.6,53.0,47.0,79,66,48,30.04,29.95,7,1,7,0.00
2012-11-25,75.2,66.0,57.9,61.3,56.2,51.3,79,71,56,30.07,29.98,6,1,6,0.00
2012-11-26,79.3,71.8,64.4,64.8,61.4,57.7,81,70,57,30.14,30.04,13,3,13,0.00
2012-11-27,82.4,76.2,72.3,67.4,64.3,61.7,75,67,56,30.13,30.04,10,4,10,0.00
2012-11-28,80.8,72.4,67.8,66.6,63.9,61.9,83,75,58,30.12,29.99,12,2,12,0.17
2012-11-29,79.7,73.7,66.7,66.6,63.2,59.3,82,70,63,30.14,30.06,14,6,14,0.00
2012-11-30,78.3,73.7,71.8,64.6,62.1,59.8,70,67,61,30.15,30.08,13,6,13,0.00
2012-12-1,80.6,75.0,72.0,65.5,63.3,61.2,73,67,58,30.14,30.06,13,6,13,0.00
2012-12-2,82.2,75.9,72.9,67.5,64.8,62.7,73,69,61,30.17,30.08,14,6,14,0.00
2012-12-3,80.4,75.0,72.3,66.1,61.3,52.2,72,63,48,30.18,30.10,12,6,12,0.00
2012-12-4,81.0,75.3,71.8,64.1,61.1,54.2,70,62,51,30.17,30.09,13,5,13,0.00
2012-12-5,81.1,75.6,71.4,66.3,63.8,61.6,77,67,55,30.09,29.97,12,4,12,0.00
2012-12-6,81.9,76.1,72.0,69.7,66.0,63.6,77,71,63,29.98,29.88,15,4,15,0.00
2012-12-7,81.9,75.2,70.2,69.5,66.6,64.0,83,75,65,29.95,29.86,12,4,12,0.06
2012-12-8,84.6,77.7,73.2,71.9,68.7,65.3,80,74,65,29.98,29.90,12,5,12,0.00
2012-12-9,84.7,78.1,72.1,73.9,70.9,66.3,84,79,69,30.02,29.95,9,3,9,0.00
2012-12-10,84.6,78.4,73.0,74.8,71.7,68.1,87,80,72,29.98,29.89,19,5,19,0.00
2012-12-11,87.3,79.5,73.8,76.0,72.0,67.6,83,78,67,30.01,29.88,15,4,15,0.00
2012-12-12,83.7,77.8,73.9,73.2,70.4,68.3,84,78,68,30.02,29.97,14,4,14,0.00
2012-12-13,79.3,74.3,68.4,72.5,66.8,61.9,85,78,69,30.05,29.98,12,2,12,0.00
2012-12-14,78.3,71.8,66.4,66.3,63.0,60.5,86,74,57,30.06,29.99,14,2,14,0.08
2012-12-15,81.3,75.5,72.3,67.2,64.4,62.3,74,69,61,30.04,29.97,10,3,10,0.00
2012-12-16,81.7,75.7,72.9,69.9,66.6,63.6,79,74,65,30.01,29.92,12,4,12,0.00
2012-12-17,83.3,75.0,68.2,68.2,65.7,62.5,83,73,58,29.93,29.85,7,1,7,0.00
2012-12-18,82.6,74.8,69.3,69.0,66.1,63.6,85,75,61,29.97,29.86,9,1,9,0.00
2012-12-19,79.7,72.5,63.5,65.8,61.8,56.0,79,70,57,30.04,29.95,8,2,8,0.00
2012-12-20,82.2,75.6,70.9,68.2,64.7,61.2,77,69,60,30.04,29.94,8,2,8,0.00
2012-12-21,80.8,66.2,55.2,66.1,48.1,38.4,80,54,34,30.10,29.92,14,4,14,0.00
2012-12-22,64.9,55.8,47.3,40.4,34.6,27.5,64,46,26,30.17,30.08,8,1,8,0.00
2012-12-23,71.8,61.7,51.6,57.7,46.7,34.7,69,58,51,30.15,30.08,9,2,9,0.00
2012-12-24,77.2,67.6,59.4,61.3,56.4,50.5,75,68,56,30.08,29.95,13,2,13,0.00
2012-12-25,78.6,70.8,62.4,63.6,60.3,55.3,78,70,59,29.99,29.91,13,4,13,0.00
2012-12-26,82.2,73.3,66.2,68.8,64.6,56.9,83,74,64,29.93,29.81,14,5,14,0.00
2012-12-27,70.7,63.3,57.0,57.1,50.8,47.2,76,65,44,30.02,29.93,9,2,9,0.00
2012-12-28,75.9,68.1,56.8,67.7,60.4,48.4,83,76,68,30.02,29.93,10,4,10,0.00
2012-12-29,82.8,75.3,65.3,72.4,67.8,54.1,87,78,62,30.05,29.88,14,4,14,0.00
2012-12-30,69.3,63.4,54.7,56.3,51.9,45.3,72,66,62,30.22,30.05,14,5,14,0.00
2012-12-31,75.7,70.5,66.0,61.2,58.0,54.3,68,65,58,30.23,30.13,13,6,13,0.00
2013-1-1,79.7,74.1,68.5,64.2,61.3,58.2,72,65,58,30.14,30.01,17,5,17,0.00